Regional Weather Roundup
Issued by NWS

Home | Current Version | Previous Version | Graphics & Text | Print | Product List | Glossary Off
Versions: 1 2 3 4 5 6 7 8 9 10 11 12 13 14 15 16 17 18 19 20 21 22 23 24 25 26 27 28 29 30 31 32 33 34 35 36 37 38 39 40 41 42 43 44 45 46 47 48 49 50

000
ASUS43 KMPX 281501
RWRMN
WEATHER ROUNDUP FOR MINNESOTA
NATIONAL WEATHER SERVICE TWIN CITIES/CHANHASSEN MN
900 AM CST SAT FEB 28 2015


NOTE: "FAIR" INDICATES FEW OR NO CLOUDS BELOW 12,000 FEET WITH NO
SIGNIFICANT WEATHER AND/OR OBSTRUCTIONS TO VISIBILITY. N/A MEANS
CURRENT SKY AND/OR WEATHER CONDITIONS ARE NOT AVAILABLE.

MNZ060>063-068>070-281600-
   Twin Cities Metro

CITY           SKY/WX    TMP DP  RH WIND       PRES   REMARKS
TWIN CITIES    MOSUNNY    4  -2  76 S3        30.54R
ST PAUL        SUNNY      5  -2  72 SE5       30.57R WCI  -4
CRYSTAL        SUNNY      8  -1  66 S12       30.51R WCI  -7
LAKEVILLE      SUNNY      1  -2  85 S10       30.53R WCI -14
EDEN PRAIRIE   SUNNY      6  -1  73 S9        30.51R WCI  -8
SOUTH ST PAUL  SUNNY      4  -3  72 S3        30.55R
LAKE ELMO      FAIR       5   0  78 S9        30.54S WCI  -9
$$
MNZ001>005-007-008-013>017-022>024-027-028-281600-
   Northwest Minnesota

CITY           SKY/WX    TMP DP  RH WIND       PRES   REMARKS
BEMIDJI        PTSUNNY    2  -4  75 S6        30.26S WCI  -9
HALLOCK        MOSUNNY    7   0  72 S21       30.19S WCI -13
ROSEAU         PTSUNNY    9   0  66 S13       30.20F WCI  -7
WARROAD        PTSUNNY    9   0  66 SW3       30.21S
THIEF RVR FALL MOSUNNY    9   1  72 S13       30.21S WCI  -7
CROOKSTON      MOSUNNY   10   3  72 S22       30.25R WCI  -9
FOSSTON        MOSUNNY   10   0  61 S15       30.23F WCI  -6
DETROIT LAKES  PTSUNNY    9   1  72 S13       30.27S WCI  -7
MOORHEAD       MOSUNNY    9   3  78 S17       30.28S WCI -10
PARK RAPIDS    PTSUNNY    2  -4  76 S8        30.29R WCI -12
MAHNOMEN       FAIR       8   0  68 S15       30.24S WCI  -9
$$
MNZ006-009>011-018-025>026-281600-
   North Central Minnesota

CITY           SKY/WX    TMP DP  RH WIND       PRES   REMARKS
BAUDETTE       MOSUNNY    3  -4  72 S7        30.22S WCI  -9
FLAG ISLAND    PTSUNNY   -2  -8  78 S9        30.21F WCI -18
INTL FALLS     PTSUNNY    6  -3  66 VRB5      30.27S WCI  -3
WASKISH        MOSUNNY    9   0  66 SE9G17    30.24S WCI  -5
BIG FORK       PTSUNNY    7  -2  66 S8        30.30S WCI  -6
LONGVILLE      PTSUNNY    1   0  92 SE6       30.33S WCI -10
GRAND RAPIDS   PTSUNNY    1  -2  85 S12       30.33R WCI -15
CRANE LAKE     PTSUNNY    3  -2  78 S9        30.34S WCI -11
ORR            PTSUNNY    3  -6  66 CALM      30.29S
COOK           PTSUNNY    7   0  72 S6        30.33R WCI  -3
WALKER         FAIR       4  -3  72 S7        30.30R WCI  -8
$$
MNZ012-019>021-037-281600-
   Northeast Minnesota

CITY           SKY/WX    TMP DP  RH WIND       PRES   REMARKS
DULUTH         SUNNY      4  -3  73 SW10      30.39R WCI -11
ELY            MOSUNNY    3  -2  78 SW5       30.33F WCI  -6
HIBBING        PTSUNNY   -2 -10  69 VRB3      30.36R
EVELETH        MOSUNNY    0  -6  78 CALM      30.37R
DULUTH HARBOR  SUNNY      5  -2  72 CALM      30.50R
TWO HARBORS    MOSUNNY    7   0  72 SW6       30.40S WCI  -3
SILVER BAY     SUNNY      7  -2  66 S3        30.39S
GRAND MARAIS     N/A     15   4  61 W6        30.45S WCI   6
G MARAIS ARPRT MOSUNNY    7  -6  56 S6        30.33S WCI  -3
$$
MNZ029>031-032-039>041-046>048-054>057-064-281600-
   West Central Minnesota

CITY           SKY/WX    TMP DP  RH WIND       PRES   REMARKS
FERGUS FALLS   PTSUNNY    7  -2  66 S15       30.35R WCI -11
WHEATON        MOSUNNY    5   0  78 S7        30.34R WCI  -7
MORRIS         MOSUNNY    7   0  72 S16       30.33F WCI -11
ALEXANDRIA     PTSUNNY    7  -2  66 S15       30.34R WCI -10
ELBOW LAKE     FAIR       6   0  76 S17       30.31S WCI -13
WADENA         PTSUNNY    3  -2  78 S8        30.31S WCI -10
APPLETON       MOSUNNY   10   0  61 S13       30.37S WCI  -5
BENSON         PTSUNNY    9   0  66 S13       30.37S WCI  -7
ORTONVILLE     SUNNY      9   0  66 S8        30.33S WCI  -4
MADISON        SUNNY     12   3  67 S12       30.36S WCI  -2
WILLMAR        FAIR       7  -2  66 S7        30.41S WCI  -5
$$
MNZ033>034-036-042>043-049>051-058-059-281600-
   Central Minnesota

CITY           SKY/WX    TMP DP  RH WIND       PRES   REMARKS
ST CLOUD       SUNNY      5  -2  72 S12       30.44S WCI -11
SAUK CENTRE    FAIR       6   0  74 S10G17    30.38S WCI  -9
PAYNESVILLE    MOSUNNY    3  -3  74 SE9       30.42R WCI -11
AITKIN         MOSUNNY    7   0  72 S12       30.37R WCI  -9
PINE RIVER     PTSUNNY    1  -2  85 S8        30.37R WCI -12
BRAINERD       PTSUNNY    5  -2  72 S12       30.37S WCI -11
STAPLES        PTSUNNY    3  -2  78 S9        30.34R WCI -11
LONG PRAIRIE   FAIR       7   0  72 S12       30.37R WCI  -9
LITTLE FALLS   MOSUNNY    5   0  78 S7        30.41S WCI  -7
LITCHFIELD     SUNNY      7   0  72 S5        30.44S WCI  -2
MAPLE LAKE     SUNNY      7   1  75 S10       30.48S WCI  -8
$$
MNZ037-044-045-052-053-281600-
   East Central Minnesota

CITY           SKY/WX    TMP DP  RH WIND       PRES   REMARKS
PRINCETON      SUNNY      7   0  72 S8        30.46S WCI  -6
MORA           SUNNY      5   0  78 S6        30.48S WCI  -6
RUSH CITY      SUNNY      4   0  83 S6        30.50R WCI  -7
MOOSE LAKE     SUNNY      5   0  78 S6        30.42F WCI  -6
HINCKLEY       FAIR       5   1  85 S9        30.48R WCI  -9
CLOQUET        SUNNY      3  -2  78 S8        30.40R WCI -10
MCGREGOR       MOSUNNY    7   1  78 S9        30.40R WCI  -7
$$
MNZ071>073-080-081-089-090-097-098-281600-
   Southwest Minnesota

CITY           SKY/WX    TMP DP  RH WIND       PRES   REMARKS
MONTEVIDEO     MOSUNNY   10   1  67 SW12      30.39S WCI  -4
GRANITE FALLS  MOSUNNY    6  -1  72 S13       30.42S WCI -10
CANBY          SUNNY     12   2  64 S12G18    30.36F WCI  -2
MARSHALL       SUNNY     10   0  61 S12       30.39S WCI  -4
REDWOOD FALLS  SUNNY      4  -3  73 S8        30.44S WCI  -9
OLIVIA         SUNNY      5   0  78 S9        30.43S WCI  -9
PIPESTONE      SUNNY      5   0  78 S12       30.34R WCI -11
WINDOM         SUNNY      7   0  72 S7        30.41S WCI  -5
WORTHINGTON    SUNNY     21  -6  30 S12       30.41R WCI   9
JACKSON        SUNNY      5  -2  72 S9        30.43R WCI  -9
TRACY          SUNNY      8   0  68 S9        30.38S WCI  -5
SLAYTON        SUNNY      8  -1  67 S16       30.37S WCI -10
$$
MNZ065>067-074>077-082>085-091>093-281600-
   South Central Minnesota

CITY           SKY/WX    TMP DP  RH WIND       PRES   REMARKS
MANKATO        SUNNY      1  -6  71 S10       30.49S WCI -14
NEW ULM        SUNNY      1  -6  71 S12       30.47S WCI -15
ST JAMES       SUNNY      3  -2  78 S10       30.48R WCI -12
FAIRMONT       SUNNY      1  -6  71 S12       30.46R WCI -15
GLENCOE        SUNNY      5  -1  76 S9        30.48S WCI  -9
FARIBAULT      SUNNY      1  -4  78 S8        30.52R WCI -12
OWATONNA       SUNNY      3  -4  72 S13       30.50S WCI -14
ALBERT LEA     SUNNY     -2  -6  84 SE6       30.51S WCI -14
$$
MNZ078>079-086>088-094>096-281600-
   Southeast Minnesota

CITY           SKY/WX    TMP DP  RH WIND       PRES   REMARKS
ROCHESTER      MOSUNNY   -1  -7  75 S10       30.53R WCI -17
RED WING       SUNNY      3  -2  78 SE5       30.57S WCI  -6
STANTON        SUNNY      4  -4  68 S12       30.53R WCI -12
DODGE CENTER   MOSUNNY    1  -2  85 S13       30.50S WCI -16
WINONA         SUNNY      0  -6  78 SE3       30.64R
AUSTIN         MOSUNNY   -6  -9  84 S6        30.53S WCI -18
PRESTON        MOSUNNY   -2  -6  84 S9        30.55S WCI -18
$$
ABBREVIATIONS USED IN REMARKS
   TC - TEMPERATURES IN CELSIUS
  WCI - WIND CHILL INDEX
   HX - HEAT INDEX
  VSB - VISIBILITY
$$



USA.gov is the U.S. government's official web portal to all federal, state and local government web resources and services.